| time (UTC) | temp F | wind direction | speed MPH | gust MPH | rain 1hr in | rain 24hr in | rain mn in | humidity % | barometer mb |
| 20260506042001 | 49 | 38 | 2.0 | 4.0 | 0.00 | 0.00 | 0.00 | 93 | 1014.3 |
| 20260506041000 | 49 | 17 | 1.0 | 3.0 | 0.00 | 0.00 | 0.00 | 93 | 1014.4 |
| 20260506040000 | 49 | 313 | 2.0 | 3.0 | 0.00 | 0.00 | 0.00 | 93 | 1014.5 |
| 20260506035000 | 48 | 324 | 2.0 | 5.0 | 0.00 | 0.00 | 0.00 | 93 | 1014.5 |
| 20260506034000 | 48 | 318 | 2.0 | 4.0 | 0.00 | 0.00 | 0.00 | 93 | 1014.5 |
| 20260506033000 | 48 | 343 | 2.0 | 3.0 | 0.00 | 0.00 | 0.00 | 92 | 1014.6 |
| 20260506032000 | 49 | 16 | 2.0 | 4.0 | 0.00 | 0.00 | 0.00 | 92 | 1014.7 |
| 20260506031000 | 49 | 48 | 1.0 | 2.0 | 0.00 | 0.00 | 0.00 | 92 | 1014.7 |
| 20260506030000 | 49 | 322 | 1.0 | 3.0 | 0.00 | 0.00 | 0.00 | 92 | 1014.7 |
| 20260506025000 | 49 | 314 | 1.0 | 2.0 | 0.00 | 0.00 | 0.00 | 92 | 1014.7 |
| 20260506024000 | 49 | 322 | 2.0 | 4.0 | 0.00 | 0.00 | 0.00 | 91 | 1014.7 |
| 20260506023000 | 49 | 293 | 3.0 | 5.0 | 0.00 | 0.00 | 0.00 | 91 | 1014.7 |
| 20260506022000 | 49 | 295 | 3.0 | 4.0 | 0.00 | 0.00 | 0.00 | 91 | 1014.8 |
| 20260506021000 | 49 | 296 | 3.0 | 4.0 | 0.00 | 0.00 | 0.00 | 91 | 1014.8 |
| 20260506020000 | 49 | 289 | 4.0 | 5.0 | 0.00 | 0.00 | 0.00 | 91 | 1014.8 |
| 20260506015000 | 49 | 292 | 3.0 | 5.0 | 0.00 | 0.00 | 0.00 | 90 | 1014.9 |
| 20260506014000 | 49 | 296 | 4.0 | 6.0 | 0.00 | 0.00 | 0.00 | 90 | 1014.9 |
| 20260506013000 | 49 | 298 | 4.0 | 5.0 | 0.00 | 0.00 | 0.00 | 90 | 1015.0 |
| 20260506012000 | 49 | 295 | 3.0 | 5.0 | 0.00 | 0.00 | 0.00 | 90 | 1015.1 |
| 20260506011004 | 49 | 294 | 4.0 | 5.0 | 0.00 | 0.00 | 0.00 | 89 | 1015.1 |
| 20260506010004 | 49 | 295 | 4.0 | 5.0 | 0.00 | 0.00 | 0.00 | 89 | 1015.2 |
| 20260506005003 | 49 | 294 | 4.0 | 5.0 | 0.00 | 0.00 | 0.00 | 88 | 1015.2 |
| 20260506004003 | 49 | 299 | 3.0 | 4.0 | 0.00 | 0.00 | 0.00 | 88 | 1015.2 |
| 20260506003003 | 49 | 293 | 4.0 | 5.0 | 0.00 | 0.00 | 0.00 | 87 | 1015.2 |
| 20260506002004 | 49 | 288 | 3.0 | 5.0 | 0.00 | 0.00 | 0.00 | 87 | 1015.2 |
| 20260506000952 | 50 | 288 | 4.0 | 5.0 | 0.00 | 0.00 | 0.00 | 86 | 1015.2 |
| 20260505235952 | 50 | 291 | 3.0 | 4.0 | 0.00 | 0.00 | 0.00 | 85 | 1015.3 |
| 20260505234952 | 50 | 284 | 2.0 | 3.0 | 0.00 | 0.00 | 0.00 | 84 | 1015.3 |
| 20260505233952 | 50 | 291 | 2.0 | 2.0 | 0.00 | 0.00 | 0.00 | 82 | 1015.3 |
| 20260505232952 | 50 | 286 | 1.0 | 2.0 | 0.00 | 0.00 | 0.00 | 80 | 1015.3 |
| 20260505231952 | 50 | 323 | 1.0 | 1.0 | 0.00 | 0.00 | 0.00 | 78 | 1015.4 |
| 20260505230952 | 51 | 152 | 1.0 | 1.0 | 0.00 | 0.00 | 0.00 | 79 | 1015.5 |
| 20260505225952 | 51 | 211 | 0.0 | 1.0 | 0.00 | 0.00 | 0.00 | 79 | 1015.6 |
| 20260505224952 | 51 | 67 | 1.0 | 2.0 | 0.00 | 0.00 | 0.00 | 79 | 1015.6 |
| 20260505223952 | 51 | 47 | 1.0 | 2.0 | 0.00 | 0.00 | 0.00 | 79 | 1015.7 |
| 20260505222952 | 51 | 50 | 2.0 | 3.0 | 0.00 | 0.00 | 0.00 | 79 | 1015.8 |
| 20260505221952 | 51 | 68 | 2.0 | 5.0 | 0.00 | 0.00 | 0.00 | 79 | 1015.8 |
| 20260505220952 | 51 | 90 | 2.0 | 4.0 | 0.00 | 0.00 | 0.00 | 80 | 1015.9 |
| 20260505215952 | 51 | 58 | 3.0 | 5.0 | 0.00 | 0.00 | 0.00 | 82 | 1015.9 |
| 20260505214952 | 51 | 58 | 3.0 | 6.0 | 0.00 | 0.00 | 0.00 | 82 | 1015.9 |
| 20260505213952 | 51 | 71 | 3.0 | 6.0 | 0.00 | 0.00 | 0.00 | 83 | 1015.8 |
| 20260505212952 | 51 | 93 | 3.0 | 6.0 | 0.00 | 0.00 | 0.00 | 84 | 1015.9 |
| 20260505211952 | 51 | 134 | 2.0 | 4.0 | 0.00 | 0.00 | 0.00 | 84 | 1015.9 |
| 20260505210951 | 51 | 136 | 3.0 | 5.0 | 0.00 | 0.00 | 0.00 | 84 | 1015.9 |
| 20260505205951 | 51 | 134 | 3.0 | 6.0 | 0.00 | 0.00 | 0.00 | 86 | 1015.9 |
| 20260505204951 | 51 | 138 | 3.0 | 5.0 | 0.00 | 0.00 | 0.00 | 87 | 1015.9 |
| 20260505203951 | 51 | 131 | 3.0 | 5.0 | 0.00 | 0.00 | 0.00 | 86 | 1015.9 |
| 20260505202951 | 51 | 139 | 3.0 | 5.0 | 0.00 | 0.00 | 0.00 | 84 | 1015.9 |
| 20260505201951 | 51 | 110 | 2.0 | 5.0 | 0.00 | 0.00 | 0.00 | 83 | 1015.9 |
| 20260505200951 | 51 | 115 | 2.0 | 5.0 | 0.00 | 0.00 | 0.00 | 82 | 1015.8 |
| 20260505195951 | 51 | 110 | 2.0 | 6.0 | 0.00 | 0.00 | 0.00 | 83 | 1015.8 |
| 20260505194951 | 51 | 126 | 3.0 | 4.0 | 0.00 | 0.00 | 0.00 | 83 | 1015.7 |
| 20260505193951 | 51 | 135 | 3.0 | 5.0 | 0.00 | 0.00 | 0.00 | 83 | 1015.6 |
| 20260505192951 | 51 | 128 | 4.0 | 7.0 | 0.00 | 0.00 | 0.00 | 82 | 1015.6 |
| 20260505191951 | 51 | 133 | 4.0 | 6.0 | 0.00 | 0.00 | 0.00 | 81 | 1015.7 |
| 20260505190951 | 51 | 133 | 4.0 | 7.0 | 0.00 | 0.00 | 0.00 | 80 | 1015.6 |
| 20260505185951 | 51 | 127 | 4.0 | 9.0 | 0.00 | 0.00 | 0.00 | 82 | 1015.5 |
| 20260505184951 | 51 | 140 | 5.0 | 8.0 | 0.00 | 0.00 | 0.00 | 83 | 1015.4 |
| 20260505183951 | 51 | 139 | 5.0 | 7.0 | 0.00 | 0.00 | 0.00 | 83 | 1015.4 |
| 20260505182951 | 51 | 129 | 4.0 | 9.0 | 0.00 | 0.00 | 0.00 | 83 | 1015.4 |
| 20260505181951 | 51 | 131 | 4.0 | 7.0 | 0.00 | 0.00 | 0.00 | 84 | 1015.5 |
| 20260505180951 | 51 | 131 | 3.0 | 8.0 | 0.00 | 0.00 | 0.00 | 87 | 1015.4 |
| 20260505175951 | 51 | 102 | 3.0 | 7.0 | 0.00 | 0.00 | 0.00 | 89 | 1015.6 |
| 20260505174951 | 52 | 119 | 3.0 | 8.0 | 0.00 | 0.00 | 0.00 | 90 | 1015.6 |
| 20260505173951 | 53 | 81 | 4.0 | 12.0 | 0.00 | 0.00 | 0.00 | 87 | 1015.6 |
| 20260505172951 | 54 | 86 | 4.0 | 9.0 | 0.00 | 0.00 | 0.00 | 79 | 1015.5 |
| 20260505171950 | 55 | 12 | 3.0 | 6.0 | 0.00 | 0.00 | 0.00 | 66 | 1015.5 |
| 20260505170950 | 55 | 353 | 4.0 | 9.0 | 0.00 | 0.00 | 0.00 | 64 | 1015.5 |
| 20260505165950 | 55 | 307 | 6.0 | 10.0 | 0.00 | 0.00 | 0.00 | 64 | 1015.5 |
| 20260505164951 | 56 | 306 | 5.0 | 9.0 | 0.00 | 0.00 | 0.00 | 64 | 1015.5 |
| 20260505163950 | 56 | 302 | 5.0 | 10.0 | 0.00 | 0.00 | 0.00 | 65 | 1015.4 |
| 20260505162950 | 56 | 289 | 6.0 | 10.0 | 0.00 | 0.00 | 0.00 | 64 | 1015.5 |
| 20260505161950 | 57 | 296 | 6.0 | 10.0 | 0.00 | 0.00 | 0.00 | 64 | 1015.4 |
| 20260505160950 | 57 | 290 | 6.0 | 11.0 | 0.00 | 0.00 | 0.00 | 63 | 1015.4 |
| 20260505152954 | 59 | 302 | 4.0 | 7.0 | 0.00 | 0.00 | 0.00 | 54 | 1015.6 |
| 20260505151954 | 59 | 356 | 3.0 | 7.0 | 0.00 | 0.00 | 0.00 | 57 | 1015.8 |
| 20260505150954 | 58 | 299 | 6.0 | 11.0 | 0.00 | 0.00 | 0.00 | 57 | 1015.7 |
| 20260505124953 | 57 | 291 | 7.0 | 14.0 | 0.00 | 0.00 | 0.00 | 60 | 1016.0 |
| 20260505123953 | 58 | 295 | 7.0 | 12.0 | 0.00 | 0.00 | 0.00 | 59 | 1016.1 |
| 20260505122953 | 58 | 332 | 3.0 | 9.0 | 0.00 | 0.00 | 0.00 | 56 | 1016.2 |
| 20260505121953 | 59 | 14 | 5.0 | 9.0 | 0.00 | 0.00 | 0.00 | 53 | 1016.1 |
| 20260505120953 | 58 | 16 | 7.0 | 11.0 | 0.00 | 0.00 | 0.00 | 53 | 1016.1 |
| 20260505115953 | 58 | 12 | 7.0 | 13.0 | 0.00 | 0.00 | 0.00 | 52 | 1016.1 |
| 20260505114953 | 59 | 28 | 6.0 | 12.0 | 0.00 | 0.00 | 0.00 | 49 | 1016.2 |
| 20260505113953 | 60 | 2 | 5.0 | 10.0 | 0.00 | 0.00 | 0.00 | 50 | 1016.1 |
| 20260505112953 | 61 | 335 | 7.0 | 17.0 | 0.00 | 0.00 | 0.00 | 46 | 1016.1 |
| 20260505111953 | 62 | 6 | 7.0 | 14.0 | 0.00 | 0.00 | 0.00 | 46 | 1016.3 |
| 20260505110953 | 61 | 322 | 5.0 | 12.0 | 0.00 | 0.00 | 0.00 | 49 | 1016.3 |
| 20260505101953 | 59 | 338 | 6.0 | 16.0 | 0.00 | 0.00 | 0.00 | 53 | 1016.4 |
| 20260505100953 | 59 | 6 | 8.0 | 16.0 | 0.00 | 0.00 | 0.00 | 54 | 1016.4 |
| 20260505095953 | 58 | 346 | 6.0 | 12.0 | 0.00 | 0.00 | 0.00 | 56 | 1016.5 |
| 20260505094953 | 57 | 331 | 5.0 | 12.0 | 0.00 | 0.00 | 0.00 | 61 | 1016.4 |
| 20260505093953 | 56 | 339 | 5.0 | 11.0 | 0.00 | 0.00 | 0.00 | 65 | 1016.5 |
| 20260505092952 | 56 | 1 | 7.0 | 12.0 | 0.00 | 0.00 | 0.00 | 64 | 1016.5 |
| 20260505091953 | 55 | 328 | 4.0 | 11.0 | 0.00 | 0.00 | 0.00 | 68 | 1016.5 |
| 20260505090952 | 55 | 10 | 5.0 | 11.0 | 0.00 | 0.00 | 0.00 | 68 | 1016.5 |
| 20260505085953 | 54 | 354 | 6.0 | 12.0 | 0.00 | 0.00 | 0.00 | 69 | 1016.4 |
| 20260505084952 | 54 | 358 | 7.0 | 15.0 | 0.00 | 0.00 | 0.00 | 71 | 1016.4 |
| 20260505083952 | 53 | 10 | 7.0 | 15.0 | 0.00 | 0.00 | 0.00 | 73 | 1016.5 |
| 20260505082952 | 53 | 8 | 5.0 | 11.0 | 0.00 | 0.00 | 0.00 | 75 | 1016.5 |
| 20260505081952 | 53 | 2 | 5.0 | 9.0 | 0.00 | 0.00 | 0.00 | 76 | 1016.5 |
| 20260505080952 | 52 | 8 | 6.0 | 12.0 | 0.00 | 0.00 | 0.00 | 77 | 1016.5 |
| 20260505075952 | 51 | 4 | 5.0 | 10.0 | 0.00 | 0.00 | 0.00 | 79 | 1016.4 |
| 20260505074952 | 51 | 2 | 6.0 | 13.0 | 0.00 | 0.00 | 0.00 | 80 | 1016.4 |
| 20260505073952 | 51 | 359 | 5.0 | 11.0 | 0.00 | 0.00 | 0.00 | 81 | 1016.4 |
| 20260505072952 | 50 | 337 | 5.0 | 12.0 | 0.00 | 0.00 | 0.00 | 82 | 1016.3 |
| 20260505071952 | 50 | 338 | 5.0 | 11.0 | 0.00 | 0.00 | 0.00 | 82 | 1016.4 |
| 20260505070952 | 49 | 318 | 5.0 | 10.0 | 0.00 | 0.00 | 0.00 | 84 | 1016.4 |
| 20260505065952 | 49 | 308 | 6.0 | 12.0 | 0.00 | 0.00 | 0.00 | 85 | 1016.4 |
| 20260505064952 | 48 | 311 | 7.0 | 11.0 | 0.00 | 0.00 | 0.00 | 85 | 1016.2 |
| 20260505063952 | 48 | 309 | 7.0 | 11.0 | 0.00 | 0.00 | 0.00 | 86 | 1016.3 |
| 20260505062952 | 48 | 315 | 4.0 | 8.0 | 0.00 | 0.00 | 0.00 | 87 | 1016.3 |
| 20260505061952 | 47 | 305 | 7.0 | 12.0 | 0.00 | 0.00 | 0.00 | 88 | 1016.3 |
| 20260505060952 | 47 | 311 | 7.0 | 12.0 | 0.00 | 0.00 | 0.00 | 88 | 1016.2 |
| 20260505055952 | 47 | 311 | 6.0 | 12.0 | 0.00 | 0.00 | 0.00 | 88 | 1016.2 |
| 20260505054951 | 47 | 304 | 7.0 | 11.0 | 0.00 | 0.00 | 0.00 | 87 | 1016.2 |
| 20260505053951 | 47 | 311 | 6.0 | 10.0 | 0.00 | 0.00 | 0.00 | 86 | 1016.2 |
| 20260505052951 | 47 | 321 | 4.0 | 10.0 | 0.00 | 0.00 | 0.00 | 85 | 1016.2 |
| 20260505051951 | 47 | 339 | 4.0 | 12.0 | 0.00 | 0.00 | 0.00 | 83 | 1016.1 |
| 20260505050951 | 47 | 356 | 6.0 | 13.0 | 0.00 | 0.00 | 0.00 | 84 | 1016.0 |